Location: Ferques
(50.8300°N, 1.7599°E)
Time: 11:40:49
(UTC+00:00)

ATLAS 3B R/B - Pass Details

Date: 19 May 2025
Orbit: 935 x 1258 km, 63.8° (Epoch: 10 June)

Event Time Altitude Azimuth Distance (km) Brightness Sun altitude
Exits shadow 21:30:07 15° 131° (SE) 2,712 4.2 -12.9°
Maximum altitude 21:32:54 19° 105° (ESE) 2,533 4.2 -13.1°
Drops below altitude 10° 21:37:52 10° 64° (ENE) 3,201 5.1 -13.5°
Sets 21:41:38 0° 48° (NE) 4,201 6.0 -13.8°
